GEFSGL_500_meanwind_000.txt.gz
Wind_Speed
48 34 32 41 50 52 52 52 51 49 49 50 46 43 43 43 43 44 48 52 56 59 61 63 64 64 61 58 57 55 54 54 49 39 32 36 41 39 37 33 27 28 31
44 43 52 56 50 49 51 51 49 49 49 44 41 43 43 44 46 50 54 58 61 63 64 65 63 59 55 53 52 50 48 46 42 34 29 33 33 30 27 21 17 19 23
48 52 53 48 50 53 51 47 46 48 45 42 43 44 46 49 52 54 59 62 64 65 64 62 59 54 49 48 46 43 41 40 38 31 26 28 27 23 18 15 16 18 20
48 49 50 50 52 50 48 47 47 43 42 44 45 46 50 54 57 59 62 64 64 64 62 58 53 48 44 42 39 38 37 36 31 25 23 23 22 19 15 14 15 16 19
45 43 46 48 48 47 47 46 43 42 44 45 48 52 56 58 59 60 61 61 60 57 52 47 44 41 38 36 34 33 31 28 24 21 19 19 18 14 13 13 14 16 18
42 43 44 43 44 43 43 42 43 44 46 49 52 55 57 59 60 59 57 55 54 52 48 44 42 39 35 31 28 27 24 22 20 17 16 14 13 11 10 11 13 16 15
43 43 44 42 39 39 40 41 44 46 49 52 54 57 58 57 56 53 52 52 51 49 43 37 34 31 25 21 22 22 20 17 16 15 13 11 9 7 8 9 12 14 12
43 43 41 39 39 39 41 43 46 49 51 53 55 56 54 52 49 47 46 43 42 39 34 31 26 22 19 19 21 20 17 13 13 13 12 11 8 5 6 9 11 11 10
41 41 40 39 40 40 43 46 48 49 50 52 53 52 49 46 43 40 38 39 42 38 31 26 21 18 19 18 17 15 11 10 12 11 11 9 5 6 6 6 7 6 3
39 38 38 38 39 41 44 46 47 48 49 49 49 48 44 41 38 37 40 42 39 30 23 19 17 16 15 13 10 10 11 12 11 12 12 8 7 8 7 9 9 5 2
35 36 36 37 39 42 43 45 47 47 46 46 46 42 39 37 36 36 38 36 28 20 14 11 10 9 8 4 8 13 14 13 12 12 10 9 10 11 12 12 8 3 3
33 35 36 38 41 43 44 45 44 43 43 43 42 40 38 35 32 30 29 27 20 14 12 10 9 7 2 7 12 14 14 13 11 11 10 11 12 12 12 10 7 1 3
32 34 37 40 42 43 43 42 40 40 41 42 41 39 36 28 23 22 23 20 16 15 13 10 8 5 6 10 12 13 13 10 10 11 12 12 13 12 11 10 6 3 6
32 36 39 41 42 41 40 38 37 39 41 40 37 35 28 19 16 19 18 14 13 16 14 11 8 8 8 11 13 11 9 10 11 11 11 11 12 13 13 10 6 6 10
33 37 39 40 40 38 37 36 38 38 38 36 32 28 22 18 16 16 13 9 12 14 12 11 10 10 12 12 13 14 15 15 14 11 9 11 16 18 14 11 8 10 14
35 36 37 37 37 36 37 38 37 36 34 32 28 24 21 17 13 12 11 9 10 11 11 10 11 14 17 18 20 19 17 15 15 13 13 15 16 16 12 10 11 12 13
34 34 35 35 36 37 38 38 36 33 31 30 27 22 17 12 10 12 10 10 9 8 11 11 12 18 19 19 20 18 15 12 12 12 11 10 12 12 9 9 12 14 14
32 33 33 35 37 39 38 35 31 28 28 28 25 20 14 10 9 11 10 9 6 5 10 10 13 19 19 19 18 16 15 13 12 12 11 12 13 12 9 12 17 20 19
31 32 35 38 39 37 34 30 26 25 25 25 23 19 13 9 10 11 11 7 4 5 9 10 13 17 19 18 15 13 13 14 14 12 13 15 15 12 13 18 22 22 21
33 36 38 38 36 32 29 25 22 22 22 23 21 17 11 10 10 10 10 6 4 5 8 11 13 17 19 18 15 12 12 12 10 11 12 14 14 14 19 23 22 20 20
36 37 35 33 30 28 24 21 20 20 21 21 20 17 13 11 11 11 11 8 5 4 6 10 14 16 18 18 16 14 13 9 7 9 9 11 12 15 21 23 22 19 21
34 33 31 29 26 24 21 20 20 20 21 21 20 19 17 17 15 12 12 11 8 6 7 11 14 14 14 15 15 14 10 8 7 7 7 10 12 16 20 21 21 21 21
32 31 29 26 23 22 20 20 21 22 21 20 17 16 17 18 18 15 12 11 10 7 9 12 15 16 14 13 12 11 12 12 9 6 8 10 13 16 18 19 20 21 21
33 32 28 25 23 22 21 21 22 23 23 22 18 14 13 15 17 16 13 12 12 10 10 13 14 15 15 14 12 12 13 11 8 8 9 11 14 15 16 17 16 15 15
35 33 30 27 25 23 23 25 25 25 25 25 22 17 14 14 15 16 15 14 14 13 11 10 11 13 14 14 13 12 10 8 7 8 9 11 13 15 15 15 15 14 13
36 33 32 30 28 26 26 27 28 28 27 27 25 22 19 18 19 19 17 16 17 16 13 10 9 11 13 13 13 12 10 9 8 8 10 12 13 13 13 13 13 13 13

GEFSGL_500_meanwind_006.txt.gz
Wind_Speed
43 44 43 42 44 50 48 45 45 47 50 51 51 53 54 56 57 56 55 55 56 55 56 56 57 58 59 60 62 63 62 62 61 55 50 47 48 49 48 48 48 47 47
41 43 45 48 51 52 48 46 46 48 49 49 51 54 56 56 56 55 54 55 55 55 55 56 58 59 60 60 60 59 58 56 53 47 44 41 41 42 43 43 43 42 40
48 50 51 51 52 51 47 46 47 46 47 49 51 52 53 53 53 53 53 53 54 55 56 57 58 58 56 54 52 51 49 47 43 40 37 36 37 38 39 39 38 36 33
51 51 51 50 49 48 46 46 45 45 47 48 48 49 50 50 51 51 52 53 54 55 56 56 55 52 47 44 43 41 38 35 33 31 29 30 31 34 35 33 29 26 25
50 50 49 48 47 46 45 44 44 45 45 45 47 48 49 50 51 51 52 53 55 55 53 51 47 44 43 41 38 34 29 25 23 22 23 24 27 28 27 22 19 18 17
47 48 48 47 46 45 44 43 43 44 45 46 48 50 51 51 51 51 52 54 54 51 47 45 43 43 42 39 33 27 22 18 17 18 19 20 21 20 16 14 12 12 11
47 48 48 47 44 43 42 42 43 45 46 47 50 51 52 50 50 52 53 51 48 44 41 40 40 38 35 30 26 22 19 17 16 16 16 16 14 12 10 8 7 7 8
49 49 47 43 41 41 41 42 44 46 48 50 51 50 50 49 50 51 49 46 42 37 35 35 34 31 26 21 19 18 16 15 14 13 11 10 8 6 5 5 5 6 7
47 42 39 39 40 40 41 43 45 48 50 50 49 48 48 48 48 46 43 39 33 32 32 32 29 26 21 16 14 13 11 10 9 7 5 5 4 3 4 5 5 7 7
37 34 36 38 40 40 42 44 47 49 48 47 46 46 46 45 43 40 36 31 29 29 29 28 27 22 16 12 8 6 5 5 5 4 4 4 3 4 5 6 6 6 5
33 34 36 37 39 41 43 45 47 47 46 46 46 46 43 40 37 34 30 27 27 26 25 25 23 17 11 7 2 3 7 7 7 8 7 6 6 6 7 7 6 2 2
32 34 35 36 39 41 43 44 44 45 46 47 46 43 38 34 32 29 26 25 23 22 22 21 16 10 6 4 8 10 10 11 11 10 9 7 7 9 9 6 3 4 4
30 32 34 37 39 41 42 43 44 45 46 45 41 35 32 30 27 24 21 20 20 20 20 16 10 8 9 11 12 12 12 12 11 10 9 9 10 10 7 5 6 6 5
29 32 35 38 39 40 42 43 44 43 41 36 31 29 29 26 22 17 16 17 18 18 17 11 10 11 13 13 13 12 11 11 10 9 9 10 10 9 7 7 7 7 8
31 34 36 37 39 40 42 42 40 36 31 27 26 27 25 20 15 12 13 14 15 14 11 10 13 14 13 12 11 11 11 10 9 7 7 9 9 9 8 8 8 8 11
31 34 36 38 40 40 39 36 32 27 23 23 24 23 20 14 10 9 11 11 11 10 9 12 15 15 15 14 14 14 13 11 9 8 9 11 11 10 9 10 11 11 12
32 35 38 39 39 36 33 29 24 21 20 21 21 19 13 8 7 8 9 8 7 8 9 12 13 15 15 15 14 14 13 12 12 12 13 14 12 11 11 11 12 12 13
34 36 37 36 33 28 24 21 18 18 19 19 18 14 9 7 7 8 7 5 5 7 10 12 14 15 15 15 15 14 13 12 12 13 14 13 12 12 13 13 13 15 17
35 35 33 28 24 21 18 18 18 17 18 17 16 12 8 8 8 7 5 5 6 8 12 14 15 15 15 16 16 15 13 10 10 11 12 12 13 14 15 16 17 19 20
31 28 24 21 19 19 18 18 18 17 15 14 13 11 8 8 7 5 6 7 8 10 13 15 14 14 14 14 14 14 12 11 11 11 12 13 15 16 17 18 19 21 22
25 22 20 19 20 20 19 19 18 16 13 9 9 10 9 8 7 9 10 10 11 12 13 14 13 12 11 11 11 12 13 13 12 12 13 15 18 19 18 19 20 22 23
21 20 19 20 20 20 20 19 18 16 12 8 7 9 10 9 10 12 13 13 13 13 12 12 12 10 9 9 9 11 12 13 13 13 15 18 20 19 18 19 21 22 22
19 19 20 20 20 20 20 19 18 16 13 10 8 9 10 11 13 15 15 15 15 14 12 11 10 8 6 7 8 10 12 14 15 16 18 20 20 19 18 19 21 22 21
19 20 20 21 21 21 20 18 17 16 15 13 13 13 13 14 15 17 18 18 17 15 13 12 10 9 8 8 9 11 13 15 16 19 21 21 19 18 19 19 19 19 18
21 21 21 21 22 21 20 19 17 16 16 16 16 16 16 16 17 18 19 20 18 16 15 13 12 11 11 11 11 12 14 15 16 18 20 20 19 18 18 19 18 16 15
26 25 24 24 23 23 22 21 19 18 17 18 18 19 19 19 19 19 19 19 18 17 15 15 14 13 14 13 13 12 13 14 16 17 18 19 18 17 17 17 16 15 14

GEFSGL_500_meanwind_012.txt.gz
Wind_Speed
40 41 42 43 42 43 46 49 51 53 54 54 54 54 55 56 56 56 55 56 58 60 63 65 66 67 68 68 67 66 66 66 66 63 62 59 55 51 49 50 51 51 52
42 43 45 46 47 49 50 51 52 53 53 53 54 55 56 56 55 54 55 57 59 61 63 65 65 66 65 65 65 64 64 63 61 58 53 49 46 44 42 41 40 40 41
44 46 48 49 50 50 51 52 53 53 54 57 59 59 58 56 54 54 56 58 60 62 63 64 63 63 63 63 62 60 57 54 52 49 44 42 40 39 37 35 33 33 33
50 51 51 51 51 52 53 54 54 56 59 63 65 62 58 53 53 55 57 59 61 62 62 62 62 62 61 59 54 50 47 46 44 42 37 35 33 31 30 29 28 27 28
55 54 53 53 53 54 55 56 58 61 64 64 62 57 52 51 53 56 58 59 60 60 60 61 60 57 54 49 45 43 43 41 39 34 29 26 25 25 25 24 22 23 24
56 54 54 55 56 57 59 62 64 63 60 57 52 49 50 51 54 56 58 58 58 59 58 57 53 48 44 42 40 39 39 35 29 24 21 20 20 20 19 18 16 17 17
53 54 55 58 59 61 63 63 60 56 50 46 46 49 51 52 54 55 56 56 56 56 53 48 44 41 40 37 35 34 32 27 20 16 14 16 15 14 12 11 10 10 10
50 52 55 58 59 58 57 54 50 47 44 45 47 50 52 52 53 53 53 53 52 48 44 39 37 36 35 32 29 26 21 16 12 10 10 9 8 7 6 4 4 4 4
49 52 55 57 56 53 50 46 43 43 44 46 48 50 51 51 51 50 49 46 43 38 35 33 33 32 30 26 20 15 12 9 7 5 4 3 3 2 1 1 1 1 2
49 52 54 54 51 48 44 43 43 44 46 48 48 49 50 49 48 45 41 37 33 30 28 29 29 26 21 16 11 7 4 2 2 3 3 4 5 5 4 4 3 2 3
49 51 52 50 47 44 42 42 44 46 47 48 49 48 46 43 40 36 32 28 24 23 23 23 21 17 12 8 5 4 6 6 6 6 7 7 7 7 6 5 5 7 8
46 45 43 41 41 42 43 44 45 47 47 47 45 42 38 34 31 27 23 20 18 18 18 15 12 9 7 7 8 9 10 10 9 8 8 7 7 6 6 7 9 11 11
39 38 37 38 39 41 43 44 45 45 43 39 35 31 28 25 23 20 17 15 15 14 11 7 7 8 8 10 11 12 11 10 9 8 7 6 6 6 8 10 11 9 7
34 35 36 37 39 41 42 42 40 36 32 28 24 23 22 20 18 15 13 13 12 9 5 6 8 10 11 12 12 11 10 9 8 7 6 6 7 9 10 11 9 9 9
33 34 36 37 39 38 36 32 28 25 22 21 20 20 20 18 15 12 11 10 9 5 4 6 9 11 11 11 10 9 8 7 6 5 6 7 9 11 11 10 10 11 13
33 34 35 35 33 30 26 23 22 21 20 19 19 19 18 15 13 12 10 7 5 3 5 8 9 10 10 9 9 8 7 6 5 6 7 9 10 11 12 12 13 14 15
32 33 32 30 27 24 23 22 22 21 20 18 17 17 15 13 12 10 7 5 3 5 7 8 9 9 10 10 9 8 7 6 6 7 8 10 11 12 13 14 16 17 17
31 29 26 24 24 23 23 23 23 21 19 16 14 13 12 11 10 8 4 3 4 7 9 9 9 10 10 10 9 8 8 8 8 8 9 10 12 13 14 16 18 19 19
28 25 23 23 23 23 23 22 21 18 15 12 11 10 10 9 7 4 4 5 8 10 10 10 10 10 10 9 9 8 8 8 8 9 10 11 13 14 16 18 19 20 20
24 22 22 22 22 22 21 19 17 14 11 8 8 8 8 7 5 5 6 8 11 12 12 11 10 10 10 9 8 7 7 8 8 9 11 12 13 15 17 18 19 20 21
21 21 21 21 21 20 18 15 13 12 9 7 7 8 8 7 7 8 10 11 13 13 12 11 10 9 10 9 8 8 8 8 9 11 12 13 15 16 18 19 20 20 21
20 20 20 19 18 16 15 13 12 11 9 8 7 8 8 9 11 12 13 14 14 13 11 10 10 10 10 10 9 9 9 10 11 12 13 14 15 16 17 17 18 19 20
19 19 19 17 15 14 13 12 12 11 10 9 9 10 10 12 13 14 15 14 13 12 10 9 10 11 11 11 10 11 11 12 13 13 13 15 15 16 16 16 16 17 18
22 20 18 16 15 14 14 13 13 12 12 11 11 12 13 14 16 16 15 14 13 11 10 10 10 11 12 12 11 12 12 13 14 14 14 15 16 16 16 16 15 15 16
25 23 21 18 17 16 15 15 15 14 14 14 14 14 16 17 17 17 16 15 13 11 11 10 11 11 12 13 12 12 13 13 13 14 15 16 17 17 17 16 16 16 16
29 28 25 23 21 19 18 18 17 16 16 16 16 16 17 18 17 17 16 15 14 12 11 11 11 12 12 13 13 13 13 13 13 14 14 15 16 16 16 16 16 16 16

GEFSGL_500_meanwind_018.txt.gz
Wind_Speed
35 38 42 45 47 49 50 51 52 53 55 57 59 60 62 64 64 64 64 64 64 65 66 66 66 66 66 65 65 67 69 72 73 72 74 74 73 69 65 60 56 53 51
39 42 45 48 50 52 53 53 55 57 60 61 62 62 63 63 63 63 63 62 62 63 62 61 61 60 61 63 65 68 71 73 73 72 67 62 58 55 52 49 46 43 40
43 46 49 51 53 55 56 57 59 62 64 64 63 63 63 62 61 61 61 60 59 59 58 57 57 58 61 63 66 68 69 69 67 62 55 50 48 45 43 40 37 34 32
46 49 52 54 55 57 59 62 64 65 65 64 62 62 62 63 62 60 58 56 55 55 55 55 57 59 61 63 65 65 63 58 54 50 45 41 38 37 34 30 27 26 25
49 52 55 57 60 62 64 65 66 65 63 61 61 61 60 60 58 56 54 53 53 53 54 56 58 60 61 62 60 56 51 46 42 38 34 31 29 27 25 22 20 20 20
52 54 57 58 60 61 62 61 61 60 59 58 58 58 57 55 53 52 51 52 53 54 55 56 57 58 57 53 48 44 40 36 31 27 24 22 20 19 18 16 15 16 16
52 53 53 53 54 55 55 55 56 56 56 56 56 55 53 51 50 49 50 52 53 54 54 54 52 50 45 39 35 33 30 26 22 19 17 16 15 14 13 12 12 12 12
49 49 49 49 50 52 53 53 53 53 53 53 51 49 48 47 48 49 50 51 51 51 49 46 41 36 31 28 25 23 21 18 16 14 12 12 11 11 10 9 9 9 9
45 45 46 47 49 49 50 50 50 49 48 47 46 46 46 47 47 47 47 47 45 43 39 34 30 25 23 20 18 16 14 12 11 10 10 9 9 8 8 9 9 9 9
42 42 43 44 45 45 46 46 45 45 44 44 44 44 44 44 43 41 40 38 36 33 29 26 22 20 17 15 12 10 9 9 9 8 9 8 9 9 9 10 11 12 12
38 39 40 41 42 43 43 42 42 42 42 42 42 41 39 37 34 33 32 30 27 24 22 19 17 15 13 10 8 8 8 8 9 9 10 10 11 12 13 15 15 14 13
37 38 39 39 39 39 39 40 40 40 40 39 37 34 31 29 28 27 27 25 21 18 16 13 12 10 8 7 7 8 9 10 11 11 12 13 15 16 16 15 13 11 10
35 36 36 37 37 38 39 39 38 37 35 32 30 28 27 25 24 24 23 20 17 13 10 7 6 6 6 6 7 9 10 11 12 14 15 16 17 16 14 12 11 10 9
33 34 35 36 37 37 37 35 33 31 29 27 27 26 25 23 23 22 20 16 12 7 4 4 5 5 6 7 9 10 11 13 14 16 17 17 16 14 13 12 12 12 11
32 34 35 35 35 33 31 30 28 27 26 25 25 24 22 21 20 18 16 12 7 3 2 4 5 6 7 8 9 11 12 13 15 17 17 17 16 15 15 15 14 13 13
33 33 33 32 30 28 27 26 25 24 24 23 22 20 19 17 16 15 12 7 3 2 3 4 5 6 8 9 10 11 12 14 16 18 17 17 17 16 16 15 15 15 15
32 31 29 27 26 24 24 23 22 21 20 19 17 16 15 14 13 11 6 2 4 4 4 4 5 7 8 9 10 11 13 15 17 17 18 18 19 18 18 17 16 16 16
27 26 24 23 22 21 21 20 19 17 15 14 13 12 11 11 8 3 2 6 7 6 5 5 6 7 8 9 10 12 13 15 16 17 18 19 20 20 19 18 17 17 17
23 22 21 20 19 19 18 17 15 13 11 10 9 8 8 6 3 5 8 9 9 7 6 6 6 7 8 9 10 12 14 15 16 17 18 19 21 21 21 20 19 17 16
22 21 19 18 16 15 13 12 11 10 9 8 7 8 8 7 8 10 12 11 10 8 7 6 6 7 7 9 10 12 14 15 16 16 17 19 21 22 22 21 20 19 18
20 19 17 15 14 12 11 9 9 8 8 8 9 10 11 12 13 14 14 12 10 9 8 7 7 7 8 9 11 12 14 15 15 16 17 19 20 22 22 22 22 21 21
19 17 15 14 13 12 10 9 8 8 9 10 11 13 14 15 16 15 14 12 10 9 8 8 8 8 9 10 12 13 14 15 16 16 16 17 19 21 22 22 22 22 23
19 18 16 15 14 12 12 11 11 11 12 13 14 15 16 17 16 14 13 11 11 10 10 9 10 10 11 12 13 13 14 15 16 16 16 17 18 19 20 20 21 21 22
22 20 18 17 15 14 14 14 14 14 14 15 17 17 17 16 15 14 13 12 12 12 11 12 12 12 12 13 14 14 15 15 16 16 16 16 17 17 18 19 19 20 20
24 22 20 19 17 17 16 16 16 16 17 17 17 17 17 16 15 14 13 13 13 13 13 13 13 13 13 14 14 15 15 16 16 16 16 17 17 18 18 19 19 19 20
27 25 23 21 19 18 17 17 17 17 17 17 17 17 16 15 15 14 13 13 14 14 14 14 14 14 14 15 15 15 16 16 17 16 16 17 17 17 18 18 18 18 18

GEFSGL_500_meanwind_024.txt.gz
Wind_Speed
44 42 42 40 40 39 40 42 45 47 51 54 57 60 62 65 67 69 70 71 71 70 69 67 66 65 64 63 63 64 65 65 64 64 66 68 69 69 68 67 63 59 55
44 42 41 41 40 42 43 46 49 52 56 58 61 63 65 67 69 70 70 69 68 66 65 65 64 62 62 63 63 64 65 66 66 65 64 64 63 61 58 53 48 44 42
43 43 42 41 43 45 48 50 53 55 58 60 62 64 66 67 68 68 67 65 64 63 62 61 61 61 61 62 63 64 65 65 64 62 58 55 50 46 42 38 35 34 32
43 44 44 46 48 49 51 53 55 57 59 61 63 64 65 65 64 64 63 62 61 60 60 60 60 61 61 62 62 62 62 59 56 51 45 40 36 33 30 27 26 26 26
47 47 48 49 50 51 52 53 55 57 59 60 61 61 61 60 60 60 59 58 58 58 58 59 60 60 61 60 59 57 53 48 42 36 32 29 27 25 24 22 21 22 22
50 50 50 50 50 50 51 53 54 55 56 57 57 57 57 57 56 56 55 56 56 56 57 58 58 57 56 54 51 47 42 36 29 25 23 22 21 21 20 19 19 18 19
50 50 49 49 49 50 51 52 53 53 53 53 53 53 52 53 54 54 54 54 54 54 54 53 52 51 48 43 38 34 30 25 21 19 18 19 19 19 19 18 18 18 18
50 49 48 48 48 48 49 50 50 49 49 49 49 50 51 51 51 51 52 52 52 51 48 46 44 40 36 31 27 24 21 19 18 17 18 18 19 19 19 19 19 20 21
47 46 46 45 46 46 47 47 47 46 47 47 48 48 49 49 49 49 49 47 46 43 41 38 33 28 25 21 18 16 15 15 16 17 18 19 20 20 21 21 21 21 20
44 43 43 43 43 44 44 44 44 45 46 46 46 47 47 47 47 45 43 40 38 36 33 29 24 19 15 13 12 12 13 15 17 18 20 20 20 20 20 19 18 17 16
42 42 41 41 41 42 42 43 44 44 44 45 45 45 45 43 41 38 35 33 31 28 25 21 16 13 11 11 12 12 14 16 17 18 19 19 18 17 16 15 15 13 13
39 38 39 39 40 40 41 42 42 43 43 43 43 41 39 36 33 31 29 27 25 22 18 14 10 9 10 11 12 13 15 16 18 18 17 16 15 14 14 14 13 13 13
36 37 37 38 38 39 40 41 41 41 40 39 37 35 32 30 28 27 25 23 19 16 11 8 7 8 10 11 12 13 15 17 17 16 15 15 15 15 15 14 15 15 15
34 35 36 37 38 39 39 39 38 37 35 33 31 29 28 27 25 24 21 17 12 8 5 4 5 7 9 11 11 13 15 16 15 16 16 16 16 16 16 16 16 17 18
33 35 36 37 37 37 36 34 32 30 29 28 27 25 24 23 21 18 15 10 4 2 0 2 5 7 9 10 11 13 15 15 15 17 17 16 17 17 17 17 17 18 19
33 34 34 33 32 31 30 28 27 26 25 24 22 20 19 17 15 11 6 2 4 4 4 4 6 7 8 10 12 14 15 15 16 17 17 17 17 18 18 18 18 18 19
31 31 30 29 27 26 24 23 22 21 19 17 16 15 14 11 7 2 4 7 8 7 6 6 7 7 8 10 13 14 15 17 18 18 18 18 18 19 20 20 20 19 19
27 26 25 24 22 21 19 18 16 15 14 13 12 11 9 4 4 8 11 11 10 8 7 7 7 8 10 12 14 15 16 18 19 20 20 21 21 22 22 23 23 21 21
23 21 20 19 17 16 14 12 11 10 9 9 9 7 7 9 12 13 13 12 10 9 8 8 9 9 11 12 14 16 17 19 20 21 22 23 23 25 26 26 26 25 24
19 18 16 15 14 12 10 9 8 7 7 8 8 9 11 13 14 14 13 11 10 9 9 9 10 11 12 13 15 16 17 19 21 22 22 23 24 26 28 29 30 29 28
17 16 14 13 11 10 8 8 8 8 9 10 12 14 15 15 15 14 12 11 10 10 10 10 11 12 13 14 15 16 17 19 20 21 22 23 24 26 28 30 31 31 30
16 15 14 12 11 10 10 10 11 12 13 15 16 17 16 15 14 13 12 11 11 10 10 11 12 13 13 14 15 16 17 18 19 20 21 23 24 26 28 29 30 30 30
16 15 14 13 13 13 13 14 15 16 17 17 17 17 16 15 14 13 12 12 12 12 12 12 13 13 14 14 15 16 17 18 19 20 21 22 23 25 26 28 28 29 30
18 17 16 15 15 16 16 17 17 18 18 18 17 16 16 15 14 14 13 12 12 13 13 13 13 13 14 15 16 17 18 19 19 20 21 22 22 23 24 25 26 26 27
19 18 17 17 17 17 18 18 18 18 18 17 16 16 15 15 15 14 14 13 13 13 13 13 13 14 14 15 16 17 18 18 19 19 20 20 21 21 22 23 23 24 25
22 20 18 17 17 17 17 17 17 17 17 16 16 15 15 15 14 14 14 13 13 13 13 14 14 14 15 15 16 17 17 17 17 17 18 19 19 20 20 21 21 22 23

GEFSGL_500_meanwind_030.txt.gz
Wind_Speed
37 38 39 40 41 41 42 42 42 42 43 43 44 45 47 49 51 53 55 57 58 59 61 61 62 61 61 61 61 62 62 63 63 63 65 65 65 64 63 61 59 56 54
40 41 42 43 44 44 45 45 46 46 47 47 48 49 51 53 54 56 57 58 59 60 60 60 60 59 59 59 60 61 62 63 63 62 61 60 59 57 54 51 48 45 42
42 43 44 45 47 48 49 49 49 50 51 51 52 53 53 54 56 57 58 58 59 59 58 58 57 57 57 58 59 61 61 61 60 58 54 52 49 46 43 40 37 34 32
45 45 46 47 49 50 51 51 52 53 53 53 53 54 55 55 56 57 57 57 57 56 55 55 55 55 56 57 58 59 58 56 52 49 45 42 39 37 34 31 29 28 28
46 47 48 48 49 51 52 53 53 54 54 55 55 55 55 55 56 56 55 55 54 53 53 53 54 55 56 56 55 54 51 47 43 39 35 33 32 30 29 28 27 26 26
45 46 48 49 51 52 53 54 55 55 55 54 54 54 54 54 54 54 53 52 52 51 51 52 53 54 53 52 50 46 42 38 33 30 29 28 28 28 28 28 28 27 26
46 48 50 51 52 54 54 54 54 53 53 53 53 53 53 52 52 51 51 50 50 50 51 51 51 50 48 45 41 38 34 30 28 27 27 27 27 27 27 27 27 26 26
49 50 51 52 52 52 52 51 51 52 52 52 52 52 52 51 50 50 49 49 49 49 49 48 46 43 39 35 33 30 28 27 28 28 28 28 28 27 26 25 24 23 23
49 50 50 50 50 50 50 50 50 51 51 51 51 50 50 49 48 48 48 48 47 46 45 42 38 34 30 27 25 24 25 26 27 28 28 27 26 24 22 21 20 19 19
48 48 48 48 48 49 49 49 49 49 49 49 49 48 48 47 47 47 46 45 43 41 38 35 31 26 23 20 20 21 23 25 26 26 25 23 21 20 19 18 16 16 16
45 45 46 46 46 46 46 46 47 47 47 47 47 47 46 46 45 43 41 39 36 33 30 27 24 19 17 17 18 20 22 23 23 21 19 19 19 18 17 15 15 15 15
42 42 42 42 43 43 44 45 45 45 45 45 45 44 43 41 39 36 34 31 29 26 24 21 17 13 13 15 18 20 20 20 18 17 17 17 17 16 15 14 14 14 15
38 38 39 40 41 41 42 42 42 42 42 41 40 38 36 34 32 30 28 25 23 20 17 13 10 9 11 14 16 17 17 16 15 16 16 16 17 16 15 14 14 14 16
35 36 37 37 38 38 39 39 38 37 36 35 33 32 30 28 26 24 22 19 15 12 8 6 6 8 10 12 13 13 13 13 14 15 15 16 16 16 15 15 14 14 15
33 34 34 35 35 35 34 33 32 31 29 28 27 25 23 21 19 17 14 9 6 3 3 2 3 6 8 10 10 11 12 13 14 16 16 17 17 16 15 15 15 15 16
31 32 32 32 31 29 28 27 26 24 22 21 19 18 16 15 12 9 5 2 4 5 3 1 3 5 7 9 10 11 12 14 16 17 18 19 18 17 16 16 16 17 17
28 28 27 26 24 23 21 20 18 16 15 14 12 11 9 6 3 2 5 8 8 6 5 4 5 7 8 9 11 12 14 15 17 18 20 21 21 20 19 18 19 19 20
23 22 21 19 18 16 15 13 12 11 9 8 7 5 4 4 7 9 11 10 9 7 7 7 8 9 10 11 12 14 15 17 18 20 22 23 23 22 22 21 21 21 22
17 16 15 14 12 11 10 9 7 6 6 6 6 7 9 11 13 13 13 11 10 9 9 9 10 11 12 13 14 15 17 19 21 22 24 25 25 25 24 24 23 23 23
14 13 12 10 9 8 8 7 7 8 8 9 10 12 13 14 14 13 12 11 11 10 11 11 12 13 14 14 15 16 18 20 22 24 25 25 25 25 25 25 24 24 24
13 12 11 10 9 9 9 9 10 11 12 13 14 15 15 14 14 13 12 12 11 12 12 13 13 14 14 15 15 17 18 20 21 23 25 26 27 26 26 26 25 24 24
13 12 12 11 11 11 12 12 13 13 14 14 15 15 14 14 13 12 12 12 12 12 13 13 14 14 14 15 16 17 18 19 20 22 24 25 26 27 27 26 26 25 24
14 13 13 13 13 13 13 14 15 15 15 15 14 14 13 13 12 12 12 12 12 13 13 13 13 14 14 15 16 17 17 18 19 21 22 23 24 25 26 26 26 25 24
15 14 13 14 14 14 15 15 15 15 14 14 14 13 13 12 11 11 11 12 12 13 13 13 13 13 14 15 15 16 16 17 18 19 21 21 22 23 23 23 24 24 24
14 14 14 13 14 14 14 14 14 13 13 13 13 13 12 11 11 11 11 12 12 12 12 13 13 13 13 13 14 15 15 16 17 18 19 20 20 21 21 22 22 22 22
13 13 13 13 13 13 13 13 13 13 12 12 12 11 11 11 11 11 11 11 12 12 12 12 12 12 12 13 13 14 15 15 16 17 17 18 19 19 20 20 21 21 21

GEFSGL_500_meanwind_036.txt.gz
Wind_Speed
39 41 42 43 45 46 46 47 47 48 48 48 48 48 48 47 48 48 49 50 51 53 54 56 57 58 60 61 62 62 63 63 63 62 64 65 65 65 64 62 60 57 54
40 42 43 44 45 46 47 49 50 50 51 51 51 51 51 51 51 52 53 54 55 55 56 57 58 58 59 59 60 60 60 61 61 60 61 62 61 59 58 55 52 49 46
42 43 44 46 47 48 49 51 52 53 53 53 53 53 54 54 55 55 56 56 57 57 57 57 57 57 57 58 58 58 58 58 59 59 58 57 55 53 50 47 44 42 41
45 46 47 48 49 51 52 53 54 54 54 55 55 56 56 57 57 57 58 58 57 57 56 55 55 55 55 55 55 56 56 57 56 55 52 49 47 44 42 40 39 39 38
48 49 51 52 52 53 53 54 54 54 55 56 56 57 58 58 59 58 58 57 56 55 55 55 54 54 53 53 53 54 54 53 51 48 45 41 39 38 38 38 38 36 35
50 51 52 52 52 53 53 53 54 55 55 56 57 58 58 58 58 58 57 56 55 54 53 53 52 51 50 50 51 51 50 47 44 41 37 35 35 36 36 35 34 32 30
49 49 49 49 50 51 51 51 52 54 55 56 57 57 57 57 56 55 54 54 53 52 51 50 49 49 47 47 47 46 43 41 37 34 32 33 34 33 32 30 29 28 28
44 44 45 47 48 49 50 51 52 53 54 55 55 55 54 54 53 53 52 51 50 49 48 47 46 45 44 42 41 39 37 34 32 31 32 32 31 29 28 28 27 26 25
42 43 44 46 48 49 50 51 51 52 53 53 52 52 52 51 51 51 50 49 48 46 44 43 42 40 38 36 34 32 30 28 29 30 29 28 27 27 26 26 25 24 23
42 43 44 45 47 48 48 49 49 50 50 50 50 49 49 48 48 48 47 45 43 41 40 38 36 33 31 29 26 24 23 24 25 26 26 25 26 26 25 24 23 22 22
42 43 43 44 44 45 46 47 47 47 47 47 46 46 46 45 44 43 41 39 37 35 33 31 29 25 23 21 19 18 19 20 21 22 23 23 24 24 24 23 21 21 21
40 41 41 41 42 42 43 43 44 44 43 43 42 42 41 40 39 37 35 33 31 28 26 24 20 16 14 13 13 15 16 17 18 20 21 21 22 21 21 20 20 20 20
37 38 38 39 40 40 40 40 40 40 40 39 38 38 36 35 33 31 28 25 23 20 17 13 9 7 7 8 10 12 13 15 17 19 20 20 20 19 19 19 20 20 20
36 37 37 37 37 37 37 37 36 35 34 33 32 31 30 27 25 22 19 16 13 10 6 3 2 2 4 7 8 10 12 15 17 18 19 19 18 18 18 19 20 20 20
34 35 34 34 33 32 32 31 30 29 27 26 24 23 21 19 15 12 9 6 3 0 2 3 4 5 6 7 8 11 13 15 17 18 18 18 18 18 18 19 20 21 22
30 30 29 28 27 27 25 24 23 22 21 20 18 15 13 10 7 4 2 3 5 5 6 6 6 7 7 8 10 12 13 15 16 17 18 19 19 19 18 19 19 21 21
25 24 23 22 22 21 19 17 16 16 15 14 13 11 9 7 6 6 7 8 9 9 9 9 9 9 10 11 12 13 14 15 17 18 19 19 19 19 19 19 19 20 21
20 19 18 18 17 16 15 13 12 11 11 11 10 10 9 9 9 10 11 11 11 11 11 11 12 12 13 13 14 15 16 17 17 18 18 19 19 19 19 19 19 19 20
18 16 15 15 14 13 12 12 11 10 10 10 10 11 11 12 12 13 13 13 13 13 13 13 14 14 14 15 15 16 17 18 18 18 19 19 19 19 19 19 19 19 19
15 15 14 14 13 12 12 11 11 11 11 12 12 13 13 13 13 14 14 14 15 15 15 15 15 15 15 15 16 16 16 17 18 19 19 20 20 20 20 20 20 19 19
14 14 14 13 13 13 12 12 12 12 13 13 13 14 14 14 14 14 15 15 15 15 15 15 15 15 14 15 15 15 15 16 18 18 19 19 20 20 20 20 20 20 19
14 13 13 13 13 13 13 12 12 12 13 14 14 14 14 14 14 14 15 15 15 15 15 15 14 14 14 13 14 14 14 15 16 17 18 19 19 20 20 21 21 21 20
12 12 12 12 13 13 12 12 12 12 12 13 13 13 13 13 14 14 14 14 14 14 14 14 13 13 12 12 13 13 14 14 16 17 18 18 19 20 20 21 21 21 21
11 11 12 12 12 12 11 11 11 11 11 12 12 12 12 12 13 13 13 13 13 13 13 12 12 12 12 12 12 13 13 14 15 17 18 18 19 20 21 22 22 22 22
10 11 11 11 11 11 11 10 10 10 10 10 10 10 11 11 11 11 12 12 12 12 11 11 11 11 11 11 12 12 13 14 15 17 18 18 20 21 22 23 24 24 24
9 10 10 10 10 10 10 10 9 9 9 9 9 9 9 10 10 10 10 11 10 10 10 11 10 10 11 11 12 13 14 15 16 18 18 19 20 21 22 23 24 25 25

GEFSGL_500_meanwind_042.txt.gz
Wind_Speed
44 43 42 41 42 42 43 44 44 45 45 46 46 47 48 49 50 52 53 54 54 55 56 56 56 57 58 58 59 59 60 61 61 62 63 64 65 65 65 66 66 65 65
43 43 43 44 44 45 46 47 47 48 49 50 51 52 53 55 56 56 56 57 57 58 58 58 58 58 59 59 59 60 60 61 61 60 60 61 62 63 63 62 61 61 59
44 45 46 47 48 48 49 50 52 53 54 55 57 58 58 59 59 59 59 60 60 59 59 58 58 59 59 59 60 60 59 59 59 58 58 59 59 59 58 56 55 53 52
46 47 49 50 51 52 53 55 56 57 58 59 61 61 61 61 60 60 60 59 58 58 58 59 59 59 59 59 58 58 57 57 56 56 56 55 55 54 52 50 47 46 45
47 48 50 52 53 54 55 56 57 58 60 61 61 60 59 59 58 58 58 58 57 58 58 59 59 58 57 57 56 56 55 54 54 53 52 50 49 47 45 44 42 40 39
47 48 50 52 53 54 56 56 56 56 56 57 57 57 57 57 56 56 57 57 57 57 57 57 56 56 55 55 54 53 52 51 50 48 46 44 42 40 38 36 35 34 33
44 46 47 49 51 52 52 52 52 52 52 53 53 54 55 55 56 56 56 56 55 55 54 54 54 54 53 51 50 49 48 47 44 42 39 37 34 32 31 30 30 30 30
40 42 44 46 48 48 49 49 49 49 49 50 51 51 52 53 54 53 53 53 53 52 52 51 50 49 47 45 44 44 43 41 38 35 31 29 27 26 26 25 24 25 26
40 41 42 43 45 45 45 46 47 47 47 48 49 50 50 51 51 51 51 50 49 49 47 45 43 41 40 39 38 36 35 33 31 27 24 23 23 22 22 21 22 22 23
37 38 39 40 41 42 43 44 44 45 45 46 46 46 47 47 47 47 46 45 44 42 40 38 37 35 34 32 29 27 25 23 21 20 20 20 19 19 19 19 20 20 20
34 35 36 37 38 39 40 41 42 42 43 43 43 43 43 43 43 42 41 40 37 35 33 31 30 28 25 22 19 17 16 15 15 15 16 16 16 17 17 18 18 19 19
31 32 34 35 36 36 37 38 38 38 38 38 38 38 37 37 36 36 34 32 30 27 25 23 20 17 14 12 10 9 9 10 11 12 13 14 14 15 16 17 18 18 19
29 30 31 31 32 32 33 33 33 33 32 32 31 30 29 29 28 27 25 22 20 17 15 12 10 8 6 4 4 5 6 8 10 11 12 13 14 14 15 16 17 19 20
25 26 27 27 28 28 28 27 27 27 26 25 24 22 21 20 18 16 13 11 8 6 4 2 1 2 3 4 5 6 8 9 10 11 12 13 14 15 16 17 18 20 21
23 24 24 24 24 24 23 22 21 20 20 19 18 16 15 13 11 8 5 3 2 4 5 6 7 7 7 8 9 10 11 12 12 13 14 15 16 17 18 18 19 20 21
21 21 20 20 20 20 19 19 18 17 16 15 14 13 12 10 7 5 5 6 8 10 11 11 11 11 11 12 12 12 13 13 14 15 16 17 18 18 19 19 19 20 21
18 18 17 17 17 16 16 16 15 14 13 12 11 10 9 7 7 8 10 12 13 14 13 13 13 13 13 13 13 13 14 14 15 16 17 18 19 20 20 20 20 21 22
16 16 15 15 14 13 13 13 12 12 12 11 10 9 9 9 11 12 13 14 15 14 14 13 13 14 13 13 13 14 15 16 17 18 19 19 20 21 21 21 21 22 22
14 14 14 13 13 12 12 11 11 11 11 11 10 11 11 12 13 13 14 14 14 14 14 14 14 13 13 13 14 14 15 16 17 19 20 20 21 21 22 22 22 22 22
12 13 13 12 12 12 11 11 11 11 11 11 11 11 12 12 13 14 14 14 14 14 13 13 13 13 13 13 14 14 15 17 18 19 20 21 22 22 23 23 23 23 22
12 11 11 11 11 11 11 11 11 11 11 11 12 12 12 12 13 14 14 14 13 13 13 12 12 12 12 13 14 15 16 17 18 19 20 21 22 23 24 24 24 24 23
10 10 10 10 10 10 10 11 11 11 11 11 12 12 12 12 13 13 14 14 13 12 12 11 11 11 12 13 14 15 16 17 18 19 20 22 23 24 25 26 25 24 23
9 9 9 9 9 9 10 10 10 10 10 10 11 11 12 12 12 13 13 12 12 11 11 10 10 11 11 12 14 15 16 17 17 18 20 21 22 24 25 25 26 25 24
8 8 8 8 9 9 8 8 8 9 9 9 9 10 10 11 11 11 11 11 10 10 10 10 10 10 11 12 13 14 15 16 17 18 20 21 22 22 23 24 25 25 25
8 8 7 8 8 8 7 7 7 7 7 8 8 8 9 9 9 9 9 9 9 9 9 9 10 11 11 12 13 14 15 16 17 18 19 20 21 22 22 23 24 24 25
7 7 7 7 7 7 6 6 6 6 6 6 6 6 7 7 8 8 8 8 8 8 9 9 10 11 11 12 13 13 14 15 16 17 18 19 20 21 21 22 22 23 23

GEFSGL_500_meanwind_048.txt.gz
Wind_Speed
45 45 45 45 45 44 44 42 41 42 43 43 44 45 47 48 49 50 52 54 55 56 57 57 58 59 61 61 62 62 63 63 63 64 65 64 65 65 65 65 64 63 63
47 47 47 47 46 45 44 44 44 46 46 47 48 50 51 52 53 55 57 58 59 60 60 60 60 61 62 63 63 63 63 63 63 63 63 64 63 63 62 61 61 60 59
45 45 45 45 45 45 45 46 47 48 49 51 52 53 54 55 57 58 59 59 60 60 60 61 61 62 62 63 62 62 62 62 62 61 61 61 61 61 59 58 57 56 54
41 42 42 42 43 44 45 46 48 49 51 53 53 54 55 56 57 59 59 59 61 61 61 62 62 62 61 61 61 61 60 60 60 60 59 58 57 55 54 52 50 49 47
38 40 42 42 43 44 46 47 49 50 51 52 54 56 57 57 58 59 59 60 61 62 62 62 61 60 60 59 58 58 58 57 56 55 53 51 50 48 47 46 43 40 39
39 39 39 41 43 44 45 46 47 48 50 52 53 56 57 58 58 58 59 60 61 61 60 59 58 57 56 55 54 53 51 50 48 47 45 44 43 42 40 38 35 33 31
34 34 36 37 38 40 42 44 46 48 50 52 54 56 57 57 58 58 58 59 58 57 55 54 53 51 49 48 47 45 44 42 40 39 37 36 35 34 31 30 29 28 28
32 33 35 36 38 40 42 44 46 47 49 51 53 54 55 56 56 56 55 54 52 50 48 47 45 43 42 40 39 39 37 36 34 31 29 27 26 24 23 22 22 24 26
32 34 36 37 39 40 42 43 45 46 48 49 51 51 52 53 52 51 50 48 46 45 42 41 38 37 34 33 32 31 30 28 26 24 21 19 18 18 18 18 19 20 22
31 32 34 35 36 38 39 41 42 44 45 46 46 47 47 47 45 44 42 41 39 36 34 32 31 29 27 26 24 23 22 20 18 17 15 14 14 14 15 17 18 20 22
29 30 32 33 34 35 36 38 39 40 41 41 41 41 40 39 38 35 33 31 29 27 25 23 22 20 19 18 17 16 15 13 13 12 12 13 14 15 16 17 19 21 23
27 28 29 30 31 33 34 35 35 35 36 36 36 35 33 32 29 27 25 22 20 18 16 14 13 12 11 11 10 9 9 9 10 10 11 13 14 16 17 18 20 21 23
24 25 26 28 29 30 30 30 31 31 31 31 30 29 27 25 23 21 18 15 13 12 10 8 7 7 7 7 7 7 8 9 10 11 12 14 15 16 17 18 20 22 24
22 23 24 25 26 27 27 27 27 27 26 25 24 22 21 19 16 13 11 10 8 7 7 7 7 7 7 8 8 8 9 10 11 12 14 15 16 17 18 19 21 23 24
20 21 21 23 23 23 23 23 23 21 21 20 19 17 15 13 10 9 8 8 8 8 9 10 10 10 10 10 10 10 11 12 13 15 16 17 18 19 20 20 21 22 22
18 19 20 20 20 20 20 20 19 18 18 17 15 14 12 10 9 9 9 10 10 10 11 11 11 11 11 12 12 12 13 14 16 17 17 18 19 20 21 21 22 22 21
16 17 17 17 17 17 17 17 16 15 15 14 13 11 10 10 10 10 11 11 12 12 12 12 12 12 12 13 14 14 15 16 17 18 19 20 21 22 22 22 22 21 21
15 16 16 15 15 15 15 15 15 14 13 11 10 10 9 10 10 11 12 12 12 12 12 12 13 13 13 14 15 15 16 17 18 19 20 21 22 23 23 23 21 21 21
14 14 13 13 13 13 13 13 13 12 11 10 9 9 9 10 10 11 11 12 12 12 12 12 13 13 14 15 15 16 17 17 18 19 21 22 23 24 24 23 21 21 21
12 12 11 11 11 12 12 12 12 11 10 10 9 9 9 10 10 11 11 11 11 12 12 13 13 13 14 15 16 16 17 18 19 20 21 22 23 24 24 23 22 21 21
10 10 9 10 10 10 11 10 10 10 9 9 9 9 10 10 10 11 11 11 11 11 12 12 13 14 14 15 15 16 17 18 19 20 21 22 23 23 23 23 22 22 21
8 8 8 8 9 9 9 9 8 8 8 8 9 9 10 10 10 10 10 11 11 11 11 12 13 13 14 14 15 16 17 18 19 20 21 22 22 23 23 23 23 22 21
7 7 7 7 8 8 8 7 7 7 7 8 8 8 9 9 9 9 9 10 10 11 11 11 12 13 14 14 15 16 17 18 19 20 20 21 21 22 22 23 23 22 21
6 7 7 7 7 7 6 6 6 6 6 6 7 7 7 8 8 8 9 9 9 10 10 11 11 12 13 14 15 16 17 18 19 20 20 20 21 21 21 21 21 21 21
7 6 6 6 6 6 5 5 5 5 5 5 5 6 6 6 7 7 8 8 9 9 10 11 11 12 13 14 15 16 17 18 18 19 20 20 20 21 21 21 20 20 20
7 7 6 6 6 5 5 4 4 4 4 4 4 5 5 5 6 7 7 8 8 9 10 10 11 12 13 14 15 16 17 17 18 19 19 19 20 20 20 20 20 20 20

GEFSGL_500_meanwind_054.txt.gz
Wind_Speed
42 43 44 45 45 47 47 48 47 47 48 48 47 47 46 47 47 47 47 48 50 51 53 55 56 57 59 61 63 64 66 67 69 69 69 69 68 68 68 68 68 68 68
43 43 44 45 46 45 46 46 47 47 46 47 47 48 48 48 48 48 49 51 53 55 56 57 58 60 62 64 65 67 67 66 65 64 64 64 63 63 62 62 62 61 61
44 45 45 45 45 45 45 46 46 45 45 46 47 48 49 49 50 51 53 55 57 58 59 60 61 63 63 63 63 62 61 59 59 58 57 57 57 56 55 55 55 55 54
42 42 42 42 44 43 43 43 44 45 45 46 47 48 50 51 52 53 55 56 57 59 60 60 60 61 60 58 56 55 55 54 53 52 52 51 51 51 50 50 49 48 46
40 41 41 41 41 42 43 44 44 45 45 46 46 48 49 51 52 54 56 57 58 58 58 57 56 56 54 53 52 50 48 47 47 46 45 45 45 44 43 42 41 39 38
37 38 39 39 40 41 42 42 43 44 45 45 46 47 49 50 52 53 54 54 54 54 53 53 52 50 48 46 45 43 42 41 40 40 39 38 37 36 36 35 34 32 31
34 35 37 37 38 39 40 41 42 43 44 45 46 48 49 50 51 51 51 50 50 50 48 47 46 44 42 41 39 37 36 34 33 33 32 31 31 31 30 29 28 27 27
31 32 34 35 36 37 37 38 39 41 42 43 44 46 47 47 48 48 47 47 47 45 44 43 41 38 36 34 32 30 29 28 27 26 26 26 26 25 25 24 24 24 24
28 29 31 32 33 34 35 36 37 39 40 41 42 43 43 43 44 44 43 42 40 38 36 33 31 28 26 24 23 22 21 20 20 21 21 21 20 20 21 21 21 21 22
26 28 29 30 30 31 32 33 34 35 36 37 38 38 39 39 38 37 35 33 31 28 25 23 21 18 17 16 16 15 15 15 16 16 16 16 17 18 19 19 20 21 22
24 25 26 26 27 27 28 30 31 32 33 33 34 33 33 32 31 28 26 23 21 19 17 15 13 12 12 12 12 12 12 13 13 13 14 15 16 17 18 19 20 21 22
22 23 23 23 24 25 26 27 28 29 29 28 28 27 27 26 23 20 17 15 13 12 11 10 9 9 9 9 10 11 12 12 13 13 14 14 16 17 18 19 20 21 21
20 20 21 21 22 23 23 24 25 25 24 24 23 22 20 18 16 14 12 10 10 9 8 8 8 8 9 10 11 12 13 13 13 14 14 15 17 18 19 19 20 20 20
18 19 19 19 19 20 21 21 22 21 21 20 18 17 15 14 12 11 9 8 8 8 8 9 9 9 10 11 12 13 14 14 14 15 15 16 18 18 18 19 19 20 20
17 18 17 17 18 18 18 19 19 18 17 16 14 12 11 10 10 9 8 8 8 8 8 9 10 10 11 11 12 13 14 14 14 15 15 17 17 18 18 18 19 19 19
16 15 16 16 16 16 16 16 16 15 14 12 11 9 9 9 9 8 8 8 8 9 9 10 10 11 11 12 12 13 14 14 14 14 15 17 17 17 17 18 18 18 18
14 14 14 14 14 13 13 13 13 12 10 9 8 7 7 8 8 8 8 8 8 9 10 10 11 11 11 12 12 12 13 14 15 15 16 17 17 17 17 17 17 18 18
12 12 12 12 11 11 11 11 10 9 8 6 6 5 6 6 7 7 8 8 8 9 9 10 11 11 11 11 12 12 14 15 16 16 16 17 17 17 16 16 17 17 17
10 10 10 10 9 8 9 8 7 7 6 5 5 5 5 6 6 7 7 7 8 8 9 10 10 11 11 12 13 13 14 15 16 16 16 17 17 16 16 16 16 16 17
8 8 8 7 6 7 7 6 6 5 5 5 5 5 5 5 6 6 6 7 7 8 9 10 10 11 11 12 13 14 15 16 17 16 16 17 16 16 16 15 15 16 16
6 6 6 5 5 5 5 5 4 4 4 4 4 5 5 5 5 6 6 6 7 8 9 9 10 11 11 12 13 14 15 16 16 16 16 16 16 16 16 15 15 15 16
5 4 4 4 4 4 3 3 3 3 3 4 4 4 5 5 5 5 6 6 7 8 8 9 10 11 12 12 14 15 15 16 16 16 16 16 16 16 16 15 15 15 16
4 4 4 4 4 3 3 2 3 3 3 3 3 4 4 4 5 5 6 6 7 7 8 9 10 11 12 13 14 15 15 16 16 16 16 16 15 15 15 15 15 15 15
4 4 4 4 3 3 2 2 2 2 2 2 3 4 4 4 5 5 6 6 6 7 8 9 10 11 12 13 14 15 15 15 16 16 16 15 15 15 15 15 15 15 15
5 4 4 3 3 2 2 2 1 1 1 2 2 3 3 4 4 5 5 6 6 7 8 9 10 11 12 13 14 14 15 15 15 15 15 15 15 15 15 15 15 15 15
5 4 4 3 2 2 1 1 1 1 1 1 2 2 3 3 3 4 5 5 6 7 8 9 10 11 12 13 14 14 14 15 15 16 16 15 15 15 15 16 16 16 16

GEFSGL_500_meanwind_060.txt.gz
Wind_Speed
37 37 37 39 41 42 42 43 42 41 42 42 42 43 44 46 46 45 45 47 47 48 48 49 51 51 52 53 54 55 55 55 56 57 59 60 61 60 60 61 61 62 61
36 37 38 40 41 42 43 43 43 44 44 44 44 45 46 47 47 46 47 48 50 51 51 52 52 53 53 53 54 54 55 55 55 57 58 58 58 59 58 58 57 56 54
38 38 39 41 42 43 43 44 44 45 45 45 46 47 48 47 47 48 49 50 51 51 52 53 53 53 54 54 55 55 56 56 57 57 56 56 56 55 53 52 51 50 49
39 40 41 42 43 43 44 44 45 46 46 46 47 47 47 48 48 49 49 51 51 52 53 54 54 55 55 54 54 55 55 55 54 54 52 52 51 49 48 46 45 44 43
40 41 41 42 43 43 43 44 44 44 45 45 45 45 46 47 48 49 50 51 52 53 53 53 53 53 52 52 51 50 50 49 48 47 45 44 42 41 40 38 37 37 37
39 40 40 41 41 41 41 42 42 42 43 43 43 44 45 46 47 48 49 50 51 51 50 49 49 48 47 47 45 45 43 41 39 37 36 35 34 33 32 32 31 30 30
36 36 37 37 38 38 38 38 39 39 39 40 41 42 43 44 45 47 47 47 46 45 44 43 42 41 39 37 35 33 31 29 29 29 28 26 26 25 26 26 26 26 27
33 34 34 34 35 35 35 36 36 36 37 38 39 40 41 42 42 42 41 40 39 37 37 35 33 31 29 27 26 24 22 21 20 20 20 20 20 21 22 23 23 23 24
30 30 30 30 30 31 31 31 32 33 34 35 36 37 38 38 37 36 34 33 32 31 29 26 23 21 20 19 18 17 16 15 15 16 17 18 19 20 21 21 21 22 22
26 27 27 27 27 27 28 29 30 30 31 31 32 32 32 31 30 29 28 27 25 22 20 17 16 15 15 14 13 13 12 13 14 15 16 17 18 19 20 20 20 21 21
23 24 24 24 24 25 26 26 26 27 27 28 28 28 27 27 26 24 22 20 17 15 14 13 13 12 12 12 12 12 12 13 14 14 15 16 17 18 18 19 20 20 21
20 21 21 21 22 22 23 23 23 24 24 24 23 23 23 21 20 18 16 14 13 12 11 11 11 11 12 12 12 12 13 13 13 14 14 15 16 17 18 19 20 20 20
19 19 19 20 20 20 21 21 21 21 21 20 20 20 18 17 16 14 13 12 10 10 10 10 11 11 12 12 13 13 13 13 14 14 15 16 17 17 18 19 19 19 19
18 18 18 18 18 18 18 18 18 18 18 18 17 16 15 14 13 12 11 10 9 10 10 10 10 10 11 12 12 13 13 14 14 15 16 16 17 17 18 18 19 18 18
17 17 16 16 16 17 17 16 16 16 16 15 14 13 12 11 10 10 9 8 8 8 9 10 10 10 11 11 12 13 13 14 15 15 15 16 16 16 16 17 17 16 17
16 15 15 15 15 15 15 14 14 14 14 13 11 10 9 9 8 8 7 7 7 8 9 9 10 11 11 11 12 13 14 14 15 15 15 15 15 14 15 15 14 15 16
14 14 14 14 14 13 12 12 12 11 11 9 8 8 7 7 7 7 7 7 7 8 9 9 10 11 11 11 12 13 14 15 15 15 15 14 14 14 13 13 13 14 15
13 12 13 12 12 11 10 9 9 9 8 7 6 6 6 6 6 6 7 8 8 8 9 9 10 11 11 11 12 13 14 15 15 15 15 14 13 13 13 12 12 12 13
11 11 11 10 9 8 8 7 7 7 6 5 5 5 5 5 6 6 7 8 8 8 9 10 10 11 11 12 13 14 15 15 15 14 14 14 13 12 12 11 11 11 12
9 8 8 8 7 6 6 6 6 6 5 5 4 5 5 5 6 6 7 7 8 8 9 10 11 11 12 13 13 14 14 15 14 14 13 13 13 12 11 11 10 10 11
6 6 6 6 5 5 5 5 5 5 5 4 4 4 5 5 6 7 7 7 8 9 10 10 11 11 12 13 14 14 14 14 14 14 13 13 12 12 11 10 10 10 11
5 5 4 5 4 4 4 5 5 4 4 4 4 4 5 5 6 6 7 7 8 9 10 11 11 11 12 13 13 14 14 14 14 13 13 13 12 11 10 10 10 10 10
6 5 5 5 5 4 4 4 4 4 4 4 4 4 4 5 5 6 7 8 9 9 10 11 11 11 12 13 13 13 14 14 14 13 13 12 12 11 10 10 10 10 10
6 5 5 5 5 5 4 4 4 4 4 4 4 4 4 5 5 6 7 8 9 9 10 10 11 12 12 12 13 13 13 14 13 13 12 12 11 11 11 10 10 10 10
6 5 5 4 4 4 4 4 4 4 4 4 4 4 4 4 5 6 7 8 9 9 10 10 11 11 12 12 12 13 13 13 13 13 12 12 11 11 11 11 11 11 11
8 6 5 4 4 3 3 3 3 3 3 3 4 4 4 5 5 6 7 8 8 9 10 10 11 11 12 12 12 13 13 13 13 13 12 12 12 12 12 12 12 12 12

GEFSGL_500_meanwind_066.txt.gz
Wind_Speed
28 28 28 29 29 29 30 31 32 33 33 34 35 35 36 36 37 38 38 39 41 42 44 44 45 46 48 50 51 52 53 54 56 57 58 59 61 62 62 61 61 61 61
30 30 30 31 31 32 33 34 35 35 36 37 37 38 38 38 39 40 40 41 43 44 45 45 46 48 49 51 52 53 54 55 55 55 56 57 57 57 58 57 57 56 56
30 31 32 32 33 34 34 35 37 37 38 38 39 39 39 40 40 41 41 42 43 44 45 46 47 48 49 49 50 50 51 51 51 52 52 52 51 51 50 50 50 49 49
32 33 33 34 35 36 37 37 38 39 39 40 40 40 39 40 40 40 41 41 42 43 44 44 45 45 45 45 44 44 45 45 45 44 44 44 44 44 43 42 42 41 40
33 34 34 35 35 36 36 37 37 38 39 39 38 38 38 38 38 39 39 40 40 41 41 41 41 40 40 40 39 39 38 37 37 37 36 35 34 33 33 33 33 32 31
33 34 34 35 35 35 36 36 36 36 37 37 36 36 36 36 37 37 37 38 38 37 37 36 36 35 35 34 33 32 31 30 29 28 26 26 26 26 25 25 25 24 24
31 32 32 33 32 33 33 33 33 34 34 34 33 34 34 34 35 35 35 34 33 32 31 31 30 29 27 26 26 25 24 22 22 21 21 21 22 22 22 22 22 22 21
28 29 29 30 30 31 31 31 31 31 31 30 31 31 32 32 32 31 29 28 28 27 27 26 24 23 22 22 21 20 19 19 18 19 19 19 19 19 19 19 19 20 21
26 26 27 27 28 28 28 28 28 27 27 28 28 29 28 27 27 26 26 25 24 24 23 22 21 20 20 19 19 18 18 17 17 17 18 18 18 18 18 19 19 19 20
25 25 25 25 25 25 25 24 24 24 25 25 25 25 24 24 24 23 23 22 21 20 19 19 19 19 19 18 18 17 17 17 17 17 18 19 19 18 18 18 18 19 19
23 23 23 22 22 22 22 22 22 22 22 21 21 21 21 21 21 20 19 18 17 17 18 18 18 18 17 17 16 16 16 16 17 17 18 18 18 17 17 18 18 18 18
20 20 20 20 20 20 19 19 19 19 19 19 19 18 17 18 17 16 15 15 15 15 16 16 16 16 16 15 15 15 15 16 16 17 17 17 17 17 17 17 17 17 17
17 18 18 18 18 18 18 18 18 17 17 17 16 16 16 15 14 13 13 13 13 13 14 14 14 14 15 14 14 15 15 16 16 16 17 17 16 16 16 16 16 16 16
17 17 17 17 16 16 16 16 16 15 15 14 14 14 14 13 12 11 11 11 11 12 12 13 13 13 13 14 14 15 15 15 16 16 16 15 15 15 15 15 15 15 15
16 16 16 16 16 15 15 14 14 13 13 13 13 12 12 11 10 10 9 10 10 11 11 12 12 13 13 13 14 14 15 15 16 16 16 15 15 15 14 14 14 14 15
14 14 15 14 14 13 13 13 12 12 11 11 11 10 9 8 8 8 8 9 10 10 11 11 12 12 13 13 14 14 15 15 15 15 15 15 14 14 14 13 13 13 14
13 12 12 11 11 11 10 10 10 9 9 9 8 8 7 7 7 7 7 8 9 10 11 11 12 13 13 14 14 14 15 15 15 15 14 14 13 13 13 12 12 12 13
10 10 9 9 9 9 8 8 7 7 7 7 6 6 6 6 6 6 7 8 9 10 11 12 13 13 13 14 14 14 15 15 15 14 14 13 13 12 12 12 12 12 12
7 6 6 6 6 6 7 6 6 6 6 5 5 5 5 5 5 6 7 8 9 10 11 12 12 13 13 14 14 14 14 14 14 14 13 12 12 11 11 11 11 12 12
5 4 4 4 4 4 4 4 4 4 4 4 4 4 4 4 5 6 7 8 10 11 11 11 12 13 13 13 14 14 14 14 13 13 13 12 11 10 10 10 11 11 12
4 4 3 3 3 3 3 3 3 3 3 3 3 3 4 4 5 6 7 8 10 10 11 11 12 12 13 13 13 13 13 13 13 12 12 11 10 9 9 9 10 11 11
5 4 3 3 3 3 2 2 2 2 2 3 2 3 4 4 5 6 7 8 9 10 10 11 12 12 13 13 13 13 13 13 12 12 11 10 10 9 9 9 9 10 10
5 4 3 3 3 2 2 2 2 2 2 3 3 3 3 4 5 6 7 8 9 9 10 11 11 12 12 13 13 13 12 12 12 11 11 10 10 9 9 9 9 9 10
6 4 4 3 3 2 2 2 2 2 2 3 3 3 3 4 5 6 7 8 8 9 10 10 11 12 12 12 12 12 12 12 11 10 10 10 10 10 9 9 10 10 10
9 7 5 4 4 3 3 3 3 3 3 3 3 3 4 4 5 6 7 7 8 9 9 10 11 11 12 12 12 12 12 12 11 11 10 10 11 11 11 11 11 11 12
12 9 7 7 6 5 5 5 5 4 4 4 4 4 4 5 5 6 7 7 8 9 10 10 11 11 12 12 12 12 13 13 12 12 12 12 12 13 13 13 13 14 14

GEFSGL_500_meanwind_072.txt.gz
Wind_Speed
25 25 24 24 24 23 22 22 22 22 23 24 26 28 29 30 32 33 34 35 36 37 37 38 39 40 41 42 43 44 46 47 48 49 50 51 52 52 53 53 54 54 54
24 24 24 24 24 23 23 23 23 24 25 27 28 30 31 33 34 35 35 36 37 38 38 38 39 40 41 42 42 43 44 45 46 47 47 48 49 49 49 49 49 49 49
24 25 25 25 25 24 24 25 26 26 28 29 30 32 33 34 35 35 36 36 37 37 37 38 38 39 39 39 40 41 41 42 42 42 42 42 42 42 42 42 42 41 40
24 25 25 26 26 25 26 26 27 28 29 31 32 33 33 34 34 34 35 35 35 35 36 36 36 37 37 37 38 38 39 39 38 38 37 36 35 35 34 34 34 34 33
24 25 25 26 26 26 27 28 29 30 30 31 32 33 33 33 32 32 33 33 33 34 34 34 34 34 34 34 35 35 35 35 34 33 32 31 30 29 29 29 29 29 29
25 25 25 26 27 27 28 28 29 29 30 30 30 30 30 30 30 31 31 32 32 31 31 31 31 31 32 32 32 32 32 31 30 29 28 27 27 27 26 26 26 25 26
25 25 26 26 27 27 27 27 28 28 29 28 29 29 29 29 29 30 30 30 29 29 29 29 29 29 29 29 28 28 27 27 26 26 25 25 25 24 24 24 24 23 23
23 23 24 24 24 25 25 26 26 27 27 27 27 27 27 27 27 28 28 27 27 27 27 26 26 26 25 25 25 24 24 23 23 23 23 23 22 22 21 21 21 22 21
21 21 21 22 22 23 23 24 24 24 25 25 25 25 25 25 25 25 25 25 25 25 24 23 23 23 22 22 21 21 21 21 21 21 20 20 20 20 19 19 19 20 20
19 20 20 21 21 22 22 23 23 22 22 22 22 22 22 22 22 22 22 22 22 21 21 20 20 19 19 19 19 19 19 19 19 19 18 18 18 18 17 18 18 18 18
19 19 19 20 20 21 21 21 21 20 20 20 20 20 20 20 20 20 20 20 20 19 18 18 17 17 17 17 17 18 18 18 17 17 17 17 17 16 16 17 17 17 17
17 18 18 18 19 19 19 19 19 19 18 18 18 17 17 17 17 17 17 17 17 16 15 16 16 16 16 16 16 16 17 16 16 16 16 16 16 15 16 16 16 15 15
16 16 17 17 18 18 18 18 18 17 17 16 16 15 15 15 15 15 15 15 14 14 14 14 14 14 15 15 15 16 16 16 15 15 15 15 15 15 14 14 14 14 13
15 15 16 17 17 17 17 17 16 16 15 14 14 13 13 13 13 13 13 13 12 12 12 12 13 13 14 14 15 15 15 14 14 14 14 14 14 14 13 13 13 12 12
15 15 16 16 15 15 15 15 14 14 13 12 12 12 11 11 11 11 11 11 11 11 11 12 12 12 13 14 14 15 14 13 13 13 13 13 13 13 12 12 11 11 11
14 14 13 13 13 13 12 12 11 11 11 10 10 10 10 10 10 9 9 10 10 10 11 11 12 12 13 13 13 13 13 13 13 13 12 12 12 11 11 10 10 10 10
11 11 11 11 11 10 10 10 9 9 9 8 8 8 8 8 8 8 8 9 9 10 10 11 12 12 13 12 12 13 13 12 12 12 11 11 11 10 9 9 9 10 10
9 9 8 8 8 8 8 7 7 7 7 7 7 6 6 6 7 7 8 8 9 10 10 11 12 12 12 12 12 12 12 12 11 10 10 10 10 9 8 8 9 9 9
7 6 6 6 6 6 5 5 5 5 5 5 5 5 5 6 6 6 7 8 8 9 10 11 11 12 12 11 11 11 11 11 10 10 9 9 8 8 7 8 8 9 9
4 4 4 5 5 4 4 3 3 2 3 3 3 3 4 5 5 6 7 8 8 9 10 11 11 11 11 11 11 11 10 10 10 9 8 8 7 7 7 7 8 9 9
4 4 4 4 4 4 3 2 2 2 2 2 2 3 3 4 5 6 7 8 8 9 10 10 11 11 11 11 11 10 10 9 9 8 8 7 7 7 7 7 8 9 10
5 4 4 4 4 4 4 3 3 2 2 2 2 3 3 4 5 6 7 8 8 9 10 11 11 11 11 11 11 10 10 9 8 7 7 7 6 7 7 8 9 10 11
7 6 5 5 5 5 4 4 4 3 3 3 3 3 4 5 6 6 7 8 9 10 10 11 11 11 12 11 11 10 10 9 8 7 7 7 7 8 9 9 10 11 12
9 8 7 6 6 6 5 5 5 4 4 4 4 4 5 6 6 7 7 8 9 10 10 11 11 12 12 12 11 11 10 10 9 9 9 9 9 9 10 11 12 12 13
11 10 9 9 8 8 7 7 6 6 6 6 6 6 6 7 7 8 8 9 9 10 11 11 11 12 12 12 12 12 12 11 11 10 10 11 11 11 12 12 13 14 14
13 12 11 11 10 10 9 9 8 8 8 8 8 8 8 8 9 9 9 10 10 11 11 11 12 12 12 12 13 13 13 12 12 12 12 13 13 13 13 14 14 15 15

GEFSGL_500_meanwind_078.txt.gz
Wind_Speed
31 30 29 28 27 27 26 25 24 23 22 22 23 24 24 25 27 28 29 30 31 32 34 36 37 38 39 40 41 43 44 44 45 45 46 47 47 48 48 49 49 49 48
29 30 30 29 29 28 27 26 24 24 24 24 25 26 27 28 28 30 31 32 33 34 35 37 37 38 39 40 41 41 42 42 43 43 44 45 45 46 46 46 46 45 44
30 31 31 30 29 28 26 26 26 26 26 26 27 28 28 29 30 31 32 33 34 35 36 37 37 38 39 39 39 39 40 40 40 41 42 43 43 43 43 43 42 40 40
28 28 28 27 27 26 26 26 26 26 26 27 28 28 29 30 31 31 32 33 34 34 35 36 37 37 37 37 37 37 37 37 38 38 39 39 39 39 39 37 36 35 34
26 26 26 26 26 26 26 26 26 26 26 27 28 29 29 30 30 31 32 33 33 33 34 34 35 35 35 35 35 35 35 35 35 35 35 35 35 34 33 32 31 30 30
23 24 25 25 26 26 26 26 26 27 28 28 29 29 29 30 31 31 31 31 31 32 32 32 33 33 32 32 33 33 32 32 31 31 31 30 30 29 28 28 27 26 26
23 23 24 25 25 26 26 27 27 28 28 28 28 28 29 29 30 30 30 30 30 30 30 30 30 30 30 31 31 30 29 28 27 27 26 26 25 25 25 24 23 23 23
22 22 22 23 23 23 24 25 26 25 26 26 26 27 27 28 28 28 28 28 28 28 28 28 28 28 29 28 27 27 26 25 24 24 24 23 22 22 21 21 20 20 20
19 20 20 21 21 22 23 23 24 24 24 25 25 26 26 26 26 26 26 26 26 26 26 25 26 26 25 25 24 23 23 22 22 22 21 21 20 20 19 19 18 18 18
17 18 18 18 19 20 21 22 22 23 23 24 24 24 24 24 24 24 24 24 23 23 23 23 23 23 22 21 21 20 20 20 20 19 19 19 18 17 17 16 16 17 16
15 16 17 18 18 19 20 20 21 21 22 22 22 22 21 21 21 21 21 21 21 21 21 20 20 20 20 19 19 19 18 18 18 17 17 17 16 15 15 15 15 15 15
15 16 17 17 18 19 19 20 20 20 20 20 20 20 19 19 18 18 18 18 19 19 18 18 18 17 18 17 17 17 17 16 16 16 15 15 14 13 13 13 13 13 13
14 15 15 16 17 17 18 18 19 19 18 18 18 17 17 17 16 16 17 17 16 16 16 15 15 15 15 15 15 15 15 15 14 13 13 13 12 12 11 11 12 12 12
12 12 13 14 14 15 15 16 16 16 16 16 16 16 15 15 14 15 15 14 14 14 13 13 13 13 13 13 14 14 14 13 13 12 12 11 11 11 11 10 10 10 11
11 11 12 12 12 13 13 13 14 14 14 14 14 13 13 13 13 13 12 12 12 12 12 12 12 12 12 13 13 13 13 12 11 11 11 10 10 10 9 9 9 9 9
10 11 11 11 11 12 12 11 11 11 11 11 11 11 11 11 11 11 11 11 10 11 11 11 11 11 12 12 12 12 11 11 11 10 9 9 9 9 8 8 8 8 8
8 8 9 9 9 9 9 9 9 9 9 9 9 10 10 9 9 9 9 9 9 9 10 10 10 11 11 11 11 11 10 10 9 9 8 8 8 8 7 7 7 7 7
5 6 6 6 6 6 7 7 7 7 7 7 7 7 7 7 6 6 7 7 8 8 9 9 10 10 11 11 10 10 9 9 8 8 7 7 7 6 6 6 6 6 7
3 4 4 4 4 4 5 4 5 5 5 5 5 5 4 4 4 5 5 6 6 7 8 8 9 9 10 10 9 9 8 8 7 6 6 6 5 5 4 5 5 6 6
1 1 2 2 2 2 2 2 2 2 3 3 3 3 2 2 3 3 4 4 5 6 7 7 8 9 9 8 8 8 7 6 6 5 5 4 4 4 3 4 5 5 6
2 2 2 2 2 1 1 1 1 2 2 2 2 1 1 1 1 2 3 4 4 6 7 7 8 8 8 8 7 7 6 5 5 4 3 3 3 3 4 4 5 6 6
5 4 4 4 4 3 3 3 3 3 3 2 2 1 1 1 1 2 3 4 5 6 7 7 8 8 8 7 7 6 5 5 4 3 3 4 4 4 5 5 6 7 7
6 6 6 5 5 5 5 5 5 4 4 3 3 3 3 3 2 3 3 4 5 6 7 8 8 8 8 7 7 6 6 5 5 5 5 5 6 6 7 7 8 8 8
9 8 8 8 7 7 7 7 6 6 5 5 4 4 4 4 4 4 5 6 6 7 8 8 8 9 9 8 8 7 7 7 7 7 7 8 8 8 8 9 9 9 9
12 11 11 10 10 9 9 8 8 8 7 7 7 6 6 6 6 6 6 7 7 8 8 9 9 9 10 10 9 9 9 8 8 9 9 9 9 10 10 10 10 9 9
15 14 13 13 12 11 11 10 10 9 9 9 8 8 8 8 7 8 8 8 8 9 9 9 10 10 10 11 11 10 10 10 10 10 10 10 10 10 10 9 9 8 8

GEFSGL_500_meanwind_084.txt.gz
Wind_Speed
33 33 31 29 29 27 27 25 25 25 25 26 25 24 23 23 23 23 24 25 26 27 28 30 31 32 34 35 36 38 39 40 41 41 42 44 45 46 46 45 45 45 44
31 31 30 29 29 28 27 26 24 23 24 24 24 25 25 26 26 27 27 28 29 29 31 32 33 34 35 36 37 38 39 39 40 41 42 43 43 43 43 43 43 42 40
29 29 28 27 27 27 27 26 25 25 25 26 26 26 27 27 28 29 30 30 30 31 33 33 34 35 36 36 37 38 38 39 40 41 41 41 41 41 40 40 39 37 35
27 27 27 26 26 27 27 27 27 28 28 28 28 28 28 29 29 30 31 31 32 32 33 34 34 35 36 36 36 37 38 38 39 39 39 39 38 38 37 35 33 32 31
24 25 25 26 26 27 27 28 28 29 29 29 30 30 30 29 29 30 31 31 32 33 33 34 34 35 35 35 35 36 36 37 37 37 36 36 35 34 32 30 29 28 28
22 24 25 25 25 26 27 28 28 29 29 29 28 28 28 28 29 30 31 32 32 33 33 33 34 34 34 34 34 35 35 35 34 34 33 32 31 29 28 26 25 25 25
21 22 23 24 25 26 25 25 26 26 26 26 27 27 27 28 29 30 30 31 32 32 32 32 32 32 33 33 33 33 33 32 32 31 30 29 27 26 25 24 24 23 23
20 21 22 22 22 22 23 23 23 23 24 24 24 25 26 28 29 30 30 30 30 31 31 31 31 31 31 31 31 30 30 29 29 28 27 25 24 23 22 22 21 21 20
17 18 19 20 20 20 21 22 22 22 23 24 24 25 26 27 27 28 28 29 29 29 29 29 29 29 29 29 28 28 27 27 26 25 24 22 21 20 20 19 18 18 18
16 17 18 19 18 19 20 20 20 20 21 22 23 24 24 24 25 26 26 27 27 26 27 27 27 27 27 26 26 25 25 24 22 21 21 20 19 19 18 17 17 17 16
14 15 15 16 16 17 17 17 18 19 20 20 21 22 23 23 24 24 24 24 24 24 24 24 24 24 23 23 22 22 21 20 20 19 19 19 18 17 16 16 15 15 15
12 12 13 13 14 15 15 16 17 18 19 19 20 21 21 21 21 22 22 22 22 22 22 21 21 21 20 20 19 18 18 18 17 17 17 16 16 15 14 13 13 13 13
10 11 12 14 14 15 15 15 16 17 18 18 19 19 20 20 20 20 19 19 19 19 19 19 19 18 18 18 17 17 16 16 15 15 15 14 13 13 12 12 12 12 12
10 10 11 12 12 12 13 14 15 16 16 17 17 17 17 17 17 16 16 16 16 17 17 17 16 16 16 16 16 15 15 15 14 14 13 13 12 11 11 11 10 10 10
9 10 10 11 11 11 12 13 13 14 14 14 14 14 14 14 14 14 14 14 15 15 15 15 15 15 15 15 15 15 14 14 13 13 12 11 10 10 10 9 9 8 7
8 9 10 10 11 11 11 12 12 12 12 12 12 12 13 12 12 12 13 13 13 13 13 14 14 14 14 14 14 14 13 13 12 11 10 9 9 8 8 7 7 6 5
8 9 9 9 9 9 10 10 11 10 10 10 10 10 10 10 10 11 11 11 11 11 12 12 12 12 13 13 13 12 12 11 10 9 9 8 7 7 6 6 5 4 4
6 7 7 7 8 8 8 8 8 8 8 8 8 8 8 8 8 8 8 8 9 10 10 11 11 11 11 11 11 11 10 9 8 8 7 7 6 5 5 4 3 3 3
4 4 4 5 5 6 5 5 5 5 5 5 5 5 5 5 5 6 6 7 8 8 9 9 10 10 10 10 10 9 8 8 7 6 6 5 4 4 3 3 2 2 3
3 3 3 4 4 3 3 3 3 3 3 3 3 3 3 4 4 5 6 6 7 8 9 9 9 9 9 9 9 8 7 6 6 5 4 3 2 2 2 2 2 3 4
3 3 3 3 3 3 3 2 2 2 2 3 3 3 4 4 5 5 6 7 8 9 9 9 9 9 9 8 8 7 6 5 5 4 3 2 2 2 2 3 3 4 4
6 5 5 5 5 5 4 4 4 4 4 4 4 5 5 5 6 6 7 8 9 9 9 10 10 9 9 8 8 7 6 5 5 4 4 4 4 4 4 4 4 4 5
9 9 9 8 8 7 7 7 7 6 6 6 6 6 6 7 7 8 8 9 10 10 10 11 10 10 10 9 8 7 7 6 6 6 6 6 5 5 5 5 5 5 6
12 12 11 11 11 10 10 9 9 8 8 7 7 8 8 8 8 9 9 10 11 11 11 11 12 12 11 10 10 9 9 8 8 8 7 7 7 7 6 6 6 6 6
13 13 13 13 13 12 12 11 10 10 9 9 9 9 9 9 9 10 10 11 11 12 12 12 12 12 12 12 11 11 10 10 9 9 8 8 8 7 7 7 6 6 7
15 15 15 14 14 14 13 12 12 12 11 11 10 10 10 10 10 10 10 11 11 12 12 12 12 12 12 12 11 11 11 10 10 9 9 8 8 7 6 6 6 7 7

GEFSGL_500_meanwind_090.txt.gz
Wind_Speed
22 22 22 22 22 23 22 22 22 22 22 22 21 20 19 20 20 19 18 18 19 20 20 20 21 23 24 25 25 27 29 30 31 33 34 36 37 37 38 38 39 40 41
19 21 23 22 22 21 22 21 20 20 22 22 21 20 20 20 20 20 19 19 20 20 21 22 23 23 25 25 27 29 30 31 32 33 34 36 36 37 37 38 39 39 38
18 19 20 20 20 20 21 21 20 19 19 20 20 20 20 21 21 21 20 21 21 22 22 23 24 25 27 28 29 30 31 31 32 33 34 35 35 36 37 37 37 36 35
17 17 18 19 19 19 20 19 19 19 19 19 20 20 20 20 20 21 21 22 23 23 24 25 26 27 28 29 30 30 31 32 32 33 34 34 35 35 35 35 34 33 32
16 17 18 18 18 18 18 19 19 19 19 20 20 20 20 20 21 21 22 23 23 24 25 26 27 27 28 28 29 30 31 31 32 32 33 33 33 33 32 32 31 29 28
17 17 17 17 18 19 18 19 19 20 20 20 20 20 21 22 22 23 23 23 23 24 25 26 26 27 28 28 29 30 30 30 31 32 32 32 31 30 29 28 27 26 24
15 15 16 17 18 18 18 17 18 19 19 21 21 22 22 22 23 23 23 23 23 24 25 25 26 27 27 28 28 28 29 30 30 30 29 29 28 27 26 25 24 23 22
14 15 15 16 16 16 17 17 17 18 19 20 20 20 21 21 22 22 21 22 23 24 25 25 26 26 26 27 27 28 28 28 28 27 26 26 25 24 23 22 21 20 20
13 14 15 15 16 16 17 17 17 17 18 19 19 19 19 20 20 21 21 22 23 23 24 24 25 25 25 25 26 26 25 25 25 24 23 23 22 21 20 19 19 19 18
11 12 12 13 14 15 15 15 15 16 17 17 16 16 17 17 18 19 20 20 21 22 22 23 23 23 23 23 23 23 22 22 21 20 20 20 19 18 18 17 17 17 17
9 10 11 12 12 13 13 14 14 14 13 13 14 14 15 16 17 18 18 19 20 20 20 20 20 20 21 21 21 20 19 19 18 18 18 17 17 16 16 16 16 16 16
9 10 11 10 11 11 11 11 12 12 11 12 12 13 14 14 15 16 16 17 17 18 18 18 18 18 18 18 18 18 17 17 17 16 16 16 15 15 15 15 15 14 14
7 8 9 9 10 10 10 10 10 10 10 10 11 12 13 13 14 14 15 15 15 15 16 16 16 16 16 16 16 16 16 15 15 15 15 15 14 14 14 14 14 13 12
6 6 7 7 7 7 7 8 8 8 8 9 9 10 10 11 11 12 13 13 13 13 14 14 14 14 14 14 14 14 14 14 14 14 14 14 13 13 13 13 12 12 11
4 5 5 6 6 6 6 7 6 6 6 7 8 8 8 9 10 10 11 11 11 12 12 12 12 12 13 13 13 13 13 13 13 13 13 12 12 11 11 11 10 9 8
3 3 3 3 4 4 4 4 4 4 5 5 6 7 7 8 8 9 9 9 9 10 10 10 11 11 12 12 12 12 12 12 12 12 11 11 10 9 9 8 8 7 7
2 2 2 2 2 3 2 3 3 3 4 5 5 5 6 6 6 6 6 7 7 8 8 9 9 10 10 10 11 11 11 11 10 10 10 9 8 7 7 7 6 6 5
2 2 2 2 1 1 1 1 1 2 2 2 2 2 3 3 3 3 4 5 5 6 7 7 8 8 9 9 9 9 9 8 8 8 7 6 6 6 5 5 5 4 3
4 4 4 3 3 2 2 1 1 1 1 2 2 3 3 3 3 3 3 4 4 5 5 6 7 7 7 7 8 7 7 7 6 6 5 4 4 4 3 3 3 3 3
6 6 5 5 4 4 4 4 4 4 4 4 4 4 4 4 4 4 5 5 5 5 6 6 6 6 7 7 6 6 5 5 4 4 3 3 2 2 2 2 2 3 3
7 7 7 7 7 6 6 6 6 6 6 6 6 6 6 6 7 7 7 7 7 7 7 7 7 7 7 6 6 6 5 5 4 4 3 3 3 3 3 3 3 3 4
10 9 9 8 8 8 8 8 8 8 8 8 8 8 8 9 9 9 9 10 10 9 9 9 9 9 8 8 7 7 6 6 6 6 5 5 4 4 4 4 4 4 4
13 12 12 11 11 11 11 11 11 11 10 10 10 10 10 10 10 11 11 11 11 11 11 11 11 11 11 10 10 9 9 8 8 7 7 6 6 6 5 5 5 5 5
14 14 14 14 14 14 14 13 13 12 12 11 11 11 11 11 11 11 12 12 12 12 12 12 13 12 12 12 11 11 10 10 9 9 8 8 7 7 6 6 6 6 6
16 16 16 16 16 16 15 14 14 13 13 12 11 11 11 11 11 11 12 12 12 12 13 13 13 12 12 12 11 11 11 10 9 9 8 8 7 7 6 6 6 7 7
18 18 18 17 17 17 16 15 15 14 14 13 12 12 11 11 11 11 11 11 12 12 12 12 12 12 11 11 10 10 10 9 9 8 7 7 7 6 7 7 8 9 9

GEFSGL_500_meanwind_096.txt.gz
Wind_Speed
22 22 23 22 21 21 22 23 22 21 22 23 23 22 22 23 23 24 24 24 24 25 25 25 26 27 27 26 26 25 25 26 27 27 28 29 29 31 33 34 35 36 37
21 21 20 21 21 20 20 22 22 22 23 23 24 24 23 23 23 24 24 24 24 24 24 24 24 25 24 24 25 25 25 26 27 28 29 30 31 33 34 35 36 36 37
22 22 21 21 20 20 21 21 21 22 23 23 24 24 24 24 24 23 23 24 24 24 24 23 23 23 23 24 25 25 26 27 28 29 30 32 33 34 35 36 36 37 37
21 21 21 21 21 20 21 22 21 22 23 23 23 23 23 23 23 23 23 23 23 23 23 22 23 23 24 25 26 26 27 28 29 30 31 32 34 34 35 35 35 35 35
20 20 21 21 21 21 22 22 21 22 22 23 22 22 22 22 22 22 22 22 23 23 23 23 23 24 25 26 27 28 28 29 30 31 32 32 33 33 33 34 34 33 33
19 19 20 21 21 21 22 21 20 21 21 22 23 23 22 22 22 21 21 21 22 23 23 23 24 25 26 27 28 28 29 29 30 31 31 32 32 32 31 31 31 30 29
18 19 19 20 20 21 21 21 21 21 20 21 21 21 22 21 21 21 21 21 21 22 23 24 25 26 26 27 28 28 29 29 30 30 30 30 30 30 29 28 28 26 25
17 18 19 19 20 19 20 21 20 19 19 19 19 20 20 20 20 21 21 21 22 22 22 23 24 25 26 27 28 28 28 28 28 28 28 28 27 26 25 25 24 23 22
16 17 18 18 18 19 18 18 19 18 18 17 17 19 19 20 20 20 21 21 21 22 22 23 24 25 26 27 27 27 27 26 26 26 26 25 24 24 23 22 21 21 20
14 15 16 16 17 17 16 16 17 16 16 17 18 18 18 19 20 20 20 19 20 21 22 23 24 25 25 26 25 25 24 24 23 23 23 23 22 22 21 20 20 19 19
12 12 12 13 14 15 15 14 14 15 15 16 16 16 16 17 18 18 19 19 20 20 21 22 23 24 24 23 22 21 21 21 21 21 21 21 20 20 19 19 18 17 17
11 11 11 11 12 13 12 12 12 13 14 14 14 14 14 14 15 16 17 18 19 19 19 19 20 20 20 19 19 19 19 20 19 19 19 18 18 18 17 16 16 16 15
9 10 10 10 10 10 10 11 11 11 11 11 12 13 13 13 14 15 15 16 17 17 17 17 17 17 17 17 18 18 18 18 17 17 17 17 17 16 15 14 14 14 13
7 8 9 9 9 10 10 10 10 9 9 9 9 10 10 11 11 11 12 13 13 14 14 14 14 15 15 15 15 15 15 15 15 15 15 15 14 14 13 12 12 12 10
6 7 7 8 8 8 7 7 7 7 7 7 7 8 8 9 9 10 10 11 11 11 12 12 12 12 12 12 13 13 13 13 13 13 13 13 12 12 11 10 10 9 8
5 5 6 6 6 6 5 5 4 4 4 4 5 5 6 7 7 8 8 9 9 9 9 9 10 10 10 11 11 12 12 11 11 12 11 11 10 9 8 8 7 7 6
5 6 6 6 6 6 5 4 3 2 1 1 1 2 3 3 4 5 6 6 7 7 8 8 8 8 9 9 9 10 10 10 9 9 9 8 8 7 6 5 5 5 5
6 6 6 6 6 5 4 4 3 2 2 2 2 2 3 3 4 4 5 5 5 5 6 6 6 7 7 7 7 7 7 7 7 7 7 6 6 5 5 4 5 4 4
8 8 7 7 6 6 5 5 4 4 4 4 4 4 5 5 5 5 5 5 5 5 6 6 6 6 6 6 6 6 6 6 6 6 6 5 5 5 5 5 5 4 4
9 9 9 8 8 7 7 7 6 6 6 6 6 6 7 7 7 7 7 7 7 7 7 7 7 7 7 7 7 7 7 6 6 6 6 6 6 6 6 5 5 5 5
10 10 10 10 10 9 9 8 8 8 8 8 8 9 9 9 10 10 10 10 10 10 10 10 9 9 9 9 9 9 8 8 8 8 8 7 7 7 7 6 6 6 6
12 12 12 11 11 11 10 10 10 10 10 10 10 10 11 11 12 12 12 12 12 12 12 12 12 11 11 11 11 10 10 10 9 9 9 9 8 8 7 7 7 7 8
14 14 13 13 13 12 12 12 12 12 12 12 12 12 12 12 13 13 13 13 13 13 13 13 13 13 12 12 12 11 11 11 10 10 9 9 9 9 8 8 8 8 8
16 16 15 15 15 15 15 14 14 13 13 13 12 12 13 13 13 13 13 13 13 13 13 13 13 12 12 12 12 12 11 10 10 10 9 9 9 9 9 9 9 9 10
17 17 17 17 17 16 16 16 15 14 14 13 13 13 12 12 12 12 12 12 12 13 13 13 12 12 12 12 12 12 11 11 11 10 10 10 9 9 10 10 10 11 12
18 18 18 17 17 16 16 15 15 14 14 13 13 13 12 12 12 12 12 12 12 12 12 12 12 12 12 12 12 12 12 11 11 11 11 11 11 11 11 12 12 13 14

GEFSGL_500_meanwind_102.txt.gz
Wind_Speed
25 26 27 28 27 27 26 27 28 27 27 27 27 28 27 26 26 26 26 27 29 29 29 30 31 30 29 29 30 30 31 32 32 31 31 31 31 31 31 32 33 34 35
24 25 25 26 26 25 25 25 26 26 25 25 26 26 26 25 25 25 26 25 26 27 28 29 29 29 28 29 29 29 29 30 30 30 29 30 30 31 33 33 34 35 35
24 24 25 25 24 24 24 23 24 24 24 24 25 25 25 25 25 25 25 25 25 26 26 26 26 26 27 27 28 27 27 28 28 28 29 30 31 32 33 33 34 35 35
24 24 24 23 23 22 22 22 23 23 23 23 24 25 25 24 24 24 24 24 25 25 25 26 26 25 26 26 26 26 27 27 28 29 30 31 32 33 33 34 34 35 35
23 23 22 22 21 21 21 21 21 21 20 21 23 23 24 24 23 23 23 23 23 24 25 25 24 24 24 25 25 26 27 27 29 30 30 31 32 32 33 34 34 33 33
22 22 21 20 19 20 20 20 20 20 20 20 20 21 21 22 22 22 21 22 22 21 21 22 22 22 23 24 25 26 28 29 30 30 30 31 31 31 32 32 31 31 30
20 20 20 19 19 19 20 21 20 20 20 20 19 20 21 20 19 19 18 19 19 19 20 21 22 22 23 24 25 27 28 28 29 29 30 30 30 30 30 29 28 28 28
17 17 18 18 17 17 17 18 18 18 18 18 19 19 19 18 18 19 18 18 18 19 20 20 21 21 22 24 25 25 26 27 27 28 28 28 28 27 26 26 26 26 26
14 15 15 15 15 15 16 16 18 18 18 19 19 18 18 17 17 17 17 17 18 19 20 20 20 21 22 22 23 24 25 25 26 26 25 25 25 25 25 25 25 24 24
12 13 14 13 13 14 15 15 15 15 16 16 16 16 16 16 15 16 16 17 17 18 18 19 19 20 21 22 23 23 23 23 23 23 23 23 23 22 22 22 22 21 21
9 10 11 12 12 13 13 14 13 13 12 13 12 12 13 14 15 15 15 16 16 17 18 18 18 19 20 21 21 21 21 22 21 21 21 21 20 20 19 19 19 19 19
7 8 10 10 11 11 11 12 12 11 10 10 11 11 11 12 12 13 13 14 15 15 16 16 17 17 18 18 19 18 18 18 18 18 18 17 17 17 17 17 17 17 17
6 7 9 9 9 8 9 9 9 9 9 8 8 8 8 8 8 9 10 11 11 12 12 13 14 14 15 15 15 15 15 14 14 14 14 14 15 15 15 15 15 15 15
6 7 8 8 8 8 8 7 7 7 7 7 6 5 5 6 6 7 8 8 9 10 11 12 12 12 12 12 12 12 12 12 12 13 13 13 14 14 14 14 13 13 12
6 8 8 8 8 7 7 7 6 5 5 5 5 4 4 5 5 6 6 7 8 8 9 9 9 9 9 9 9 9 9 10 11 11 11 12 12 12 12 12 11 10 10
8 8 8 9 8 8 7 7 6 5 4 3 3 3 2 2 3 3 4 4 5 5 6 6 6 6 6 7 7 8 8 9 9 9 10 10 10 10 9 9 9 8 8
9 9 9 9 9 8 8 7 6 5 4 3 2 1 1 1 1 1 2 2 3 3 3 4 4 4 4 5 5 6 6 7 7 8 8 8 7 7 7 7 6 6 7
10 10 10 10 10 9 8 7 7 6 6 5 5 5 5 4 4 4 4 4 4 4 4 3 3 3 4 4 4 5 6 6 6 6 6 6 6 6 6 6 6 6 7
12 12 12 12 11 10 10 9 9 9 8 8 8 8 8 8 8 8 8 7 7 7 7 6 6 5 5 5 5 5 6 6 5 5 5 6 6 6 6 6 6 6 6
13 13 12 12 12 12 11 11 11 10 10 10 10 10 10 10 10 10 10 10 10 9 9 8 8 8 8 7 7 7 7 7 6 6 6 6 6 6 6 6 6 6 7
13 13 13 13 13 13 13 12 12 12 12 12 12 12 11 11 12 11 11 11 11 11 11 10 10 9 9 9 8 8 8 7 7 7 7 7 7 7 7 7 7 7 8
15 15 14 14 14 13 14 14 14 13 13 13 13 12 12 12 12 12 12 11 11 11 11 11 10 10 9 9 9 9 8 8 8 8 7 7 7 7 7 8 8 9 9
16 15 15 15 14 14 15 15 15 14 14 14 13 13 13 13 12 12 12 12 11 11 11 10 10 10 10 10 9 9 9 8 8 8 8 8 8 8 9 9 9 10 11
16 16 16 16 15 16 16 15 15 15 14 14 14 13 13 12 12 12 12 12 12 11 11 11 11 11 11 10 10 10 10 9 9 9 9 9 10 10 10 10 11 11 12
17 17 17 17 17 16 16 16 15 15 15 14 14 13 13 12 12 12 12 12 12 11 11 11 11 11 11 11 11 11 10 10 10 10 11 11 11 11 12 12 13 14 14
17 17 17 17 17 16 16 15 15 15 14 14 13 13 13 12 12 12 11 11 11 11 11 10 10 11 11 11 11 11 11 11 11 12 12 12 13 13 14 15 15 16 16